Topeka, KS

2:15 AM CDT on September 17, 2019 (GMT -0500)
Billard Municipal

Weather History for KTOP - August, 2019

Change the Weather History Date:

Sunday, August 25, 2019

  Actual Average Record
Temperature  
Mean Temperature 72 °F 76 °F  
Max Temperature 77 °F 88 °F 109 °F (1936)
Min Temperature 66 °F 65 °F 47 °F (1958)
Degree Days  
Heating Degree Days 0 0  
Month to date heating degree days 0 0  
Since 1 June heating degree days 0 8  
Since 1 July heating degree days 0 0  
Cooling Degree Days 7 11  
Month to date cooling degree days 327 324  
Year to date cooling degree days 1206 1166  
Since 1 June cooling degree days 1094 1040  
Growing Degree Days 22 (Base 50)    
Moisture  
Dew Point 65 °F    
Average Humidity 85    
Maximum Humidity 97    
Minimum Humidity 73    
Precipitation  
Precipitation 0.76 in 0.14 in 2.55 in (2012)
Month to date precipitation 8.77 3.42  
Year to date precipitation 37.63 25.75  
Snow  
Snow 0.00 in 0.00 in 0.00 in ()
Month to date snowfall T 0.0  
Year to date snowfall 18.5 11.3  
Since 1 July snowfall T 0.0  
Snow Depth 0.00 in    
Sea Level Pressure  
Sea Level Pressure 29.86 in    
Wind  
Wind Speed 5 mph (ESE)    
Max Wind Speed 14 mph    
Max Gust Speed 20 mph    
Visibility 9 miles    
Events Rain , Thunderstorm    
T = Trace of Precipitation, MM = Missing Value Source: NWS Daily Summary

Daily Weather History Graph

Daily Weather History Graph

Search for Another Location

Airport or City:

Astronomy

Aug. 25, 2019 Rise Set
Actual Time 6:44 AM CDT 8:03 PM CDT
Civil Twilight 6:16 AM CDT 8:31 PM CDT
Nautical Twilight 5:43 AM CDT 9:04 PM CDT
Astronomical Twilight 5:08 AM CDT 9:39 PM CDT
Moon 1:21 AM CDT (8/25) 4:24 PM CDT (8/25)
Length of Visible Light 14h 14m
Length of Day
13h 19m
Waning Crescent, 29% of the Moon is Illuminated
Aug 25
Waning Crescent
Aug 30
New
Sep 5
First Quarter
Sep 13
Full
Sep 21
Last Quarter

Hourly Weather History & Observations

Time (CDT) Temp. Dew Point Humidity Pressure Visibility Wind Dir Wind Speed Gust Speed Precip Events Conditions
12:53 AM 69.1 °F 62.1 °F 78% 29.98 in 10.0 mi ESE 6.9 mph - N/A   Overcast
1:53 AM 69.1 °F 63.0 °F 81% 29.94 in 10.0 mi East 8.1 mph - N/A   Overcast
2:23 AM 69.1 °F 63.0 °F 81% 29.95 in 10.0 mi ESE 8.1 mph - N/A   Overcast
2:53 AM 69.1 °F 63.0 °F 81% 29.94 in 10.0 mi ESE 3.5 mph - N/A   Overcast
3:10 AM 69.1 °F 64.0 °F 84% 29.95 in 10.0 mi East 3.5 mph - N/A Thunderstorm Overcast
3:25 AM 69.1 °F 64.0 °F 84% 29.94 in 9.0 mi ESE 6.9 mph - 0.00 in Rain Light Rain
3:34 AM 66.9 °F 64.9 °F 93% 29.93 in 1.8 mi East 9.2 mph - 0.08 in Rain Heavy Rain
3:41 AM 66.9 °F 64.0 °F 90% 29.92 in 2.0 mi East 9.2 mph - 0.26 in Rain , Thunderstorm Light Thunderstorms and Rain
3:44 AM 66.9 °F 64.0 °F 90% 29.92 in 3.0 mi East 8.1 mph - 0.26 in Rain , Thunderstorm Light Thunderstorms and Rain
3:53 AM 66.9 °F 64.0 °F 90% 29.89 in 10.0 mi ESE 10.4 mph - 0.26 in Thunderstorm Thunderstorm
3:55 AM 66.9 °F 64.0 °F 90% 29.91 in 10.0 mi ESE 10.4 mph - N/A   Overcast
4:53 AM 68.0 °F 64.0 °F 87% 29.87 in 10.0 mi ESE 10.4 mph - N/A   Overcast
5:44 AM 68.0 °F 64.0 °F 87% 29.89 in 10.0 mi ESE 9.2 mph - 0.00 in Rain , Thunderstorm Light Rain
5:51 AM 68.0 °F 64.4 °F 88% 29.89 in 10.0 mi SSE 6.9 mph - 0.00 in Rain , Thunderstorm Light Rain
5:53 AM 68.0 °F 64.9 °F 90% 29.87 in 10.0 mi South 6.9 mph - 0.00 in Rain , Thunderstorm Light Rain
6:23 AM 68.0 °F 64.9 °F 90% 29.88 in 5.0 mi ESE 10.4 mph - 0.01 in Rain , Thunderstorm Heavy Rain
6:53 AM 66.9 °F 64.9 °F 93% 29.83 in 6.0 mi East 12.7 mph - 0.21 in Rain , Thunderstorm Rain
7:11 AM 66.9 °F 64.9 °F 93% 29.87 in 7.0 mi SE 8.1 mph - 0.05 in Rain Light Rain
7:51 AM 68.0 °F 64.4 °F 88% 29.89 in 10.0 mi ESE 10.4 mph - 0.07 in   Mostly Cloudy
7:53 AM 68.0 °F 64.9 °F 90% 29.87 in 10.0 mi ESE 9.2 mph - 0.07 in   Mostly Cloudy
8:39 AM 68.0 °F 66.0 °F 93% 29.87 in 10.0 mi East 6.9 mph - 0.00 in Rain Light Rain
8:53 AM 68.0 °F 66.0 °F 93% 29.85 in 10.0 mi East 8.1 mph - 0.00 in Rain Light Rain
9:01 AM 68.0 °F 66.0 °F 93% 29.87 in 10.0 mi East 6.9 mph - 0.00 in Rain Light Rain
9:10 AM 68.0 °F 66.0 °F 93% 29.87 in 10.0 mi East 8.1 mph - 0.01 in Rain Light Rain
9:53 AM 69.1 °F 66.0 °F 90% 29.86 in 10.0 mi East 9.2 mph - 0.02 in Rain Light Rain
10:53 AM 70.0 °F 68.0 °F 93% 29.87 in 9.0 mi East 4.6 mph - 0.04 in Rain Light Rain
11:24 AM 71.1 °F 66.9 °F 87% 29.89 in 9.0 mi South 5.8 mph - 0.03 in Rain Light Rain
11:33 AM 71.1 °F 66.9 °F 87% 29.88 in 8.0 mi South 5.8 mph - 0.04 in Rain Light Rain
11:53 AM 70.0 °F 66.9 °F 90% 29.87 in 5.0 mi SSE 5.8 mph - 0.05 in Rain Rain
12:12 PM 70.0 °F 66.9 °F 90% 29.89 in 2.0 mi South 4.6 mph - 0.06 in Rain Rain
12:27 PM 70.0 °F 66.9 °F 90% 29.88 in 6.0 mi SW 5.8 mph - 0.09 in Rain Light Rain
12:49 PM 69.8 °F 64.4 °F 83% 29.87 in 6.0 mi SSW 4.6 mph - 0.10 in Rain Light Rain
12:53 PM 69.1 °F 64.9 °F 87% 29.86 in 7.0 mi SW 4.6 mph - 0.11 in Rain Light Rain
1:03 PM 70.0 °F 66.0 °F 87% 29.87 in 10.0 mi Calm Calm - 0.00 in Rain Light Rain
1:14 PM 71.1 °F 66.0 °F 84% 29.86 in 10.0 mi SSE 4.6 mph - 0.00 in   Overcast
1:23 PM 73.0 °F 66.9 °F 81% 29.86 in 10.0 mi Variable 5.8 mph - 0.00 in   Overcast
1:51 PM 73.4 °F 66.2 °F 78% 29.85 in 10.0 mi ESE 3.5 mph - 0.00 in   Mostly Cloudy
1:53 PM 73.9 °F 66.0 °F 76% 29.83 in 10.0 mi ESE 8.1 mph - 0.00 in   Mostly Cloudy
2:09 PM 73.0 °F 66.0 °F 79% 29.85 in 10.0 mi East 3.5 mph - N/A   Overcast
2:18 PM 72.0 °F 66.0 °F 81% 29.85 in 10.0 mi East 4.6 mph - N/A   Overcast
2:53 PM 73.9 °F 66.0 °F 76% 29.81 in 10.0 mi ENE 4.6 mph - N/A   Overcast
3:05 PM 73.9 °F 66.9 °F 79% 29.83 in 10.0 mi NE 3.5 mph - N/A   Overcast
3:53 PM 73.9 °F 66.0 °F 76% 29.80 in 10.0 mi Calm Calm - N/A   Overcast
4:02 PM 73.0 °F 64.9 °F 76% 29.82 in 10.0 mi SSW 4.6 mph - N/A   Overcast
4:28 PM 73.0 °F 64.9 °F 76% 29.81 in 10.0 mi Calm Calm - N/A   Overcast
4:53 PM 73.9 °F 64.9 °F 73% 29.79 in 10.0 mi Calm Calm - N/A   Mostly Cloudy
5:53 PM 75.0 °F 66.0 °F 73% 29.78 in 10.0 mi Calm Calm - N/A   Scattered Clouds
6:16 PM 75.9 °F 66.0 °F 71% 29.80 in 10.0 mi Calm Calm - N/A   Mostly Cloudy
6:53 PM 73.9 °F 66.9 °F 79% 29.79 in 10.0 mi NE 8.1 mph - N/A   Scattered Clouds
7:53 PM 71.1 °F 66.0 °F 84% 29.80 in 10.0 mi NE 6.9 mph - N/A   Partly Cloudy
8:53 PM 69.1 °F 66.0 °F 90% 29.81 in 10.0 mi Calm Calm - N/A   Clear
10:20 PM 68.0 °F 64.9 °F 90% 29.85 in 10.0 mi ENE 4.6 mph - N/A   Mostly Cloudy
10:35 PM 68.0 °F 64.9 °F 90% 29.85 in 10.0 mi Calm Calm - N/A   Overcast
10:53 PM 69.1 °F 66.0 °F 90% 29.83 in 10.0 mi Calm Calm - N/A   Overcast
11:51 PM 68.0 °F 64.4 °F 88% 29.82 in 10.0 mi East 5.8 mph - N/A   Overcast
11:53 PM 68.0 °F 64.9 °F 90% 29.81 in 10.0 mi East 5.8 mph - N/A   Overcast